Regional Weather Roundup
Issued by NWS

Home | Current Version | Previous Version | Graphics & Text | Print | Product List | Glossary On
Versions: 1 2 3 4 5 6 7 8 9 10 11 12 13 14 15 16 17 18 19 20 21 22 23 24 25 26 27 28 29 30 31 32 33 34 35 36 37 38 39 40 41 42 43 44 45 46 47 48 49 50
920
ASUS43 KBIS 171510
RWRND

NORTH DAKOTA REGIONAL WEATHER ROUNDUP
NATIONAL WEATHER SERVICE BISMARCK ND
900 AM CST FRI NOV 17 2017

NOTE: "FAIR" INDICATES FEW OR NO CLOUDS BELOW 12,000 FEET WITH NO
SIGNIFICANT WEATHER AND/OR OBSTRUCTIONS TO VISIBILITY.


NDZ001>003-009>011-017-171600-
NORTHWEST NORTH DAKOTA

CITY           SKY/WX    TMP DP  RH WIND       PRES   REMARKS
WILLISTON      CLOUDY    14   9  80 CALM      29.69S
MINOT          CLOUDY    16   9  74 NW10      29.69R WCI   4
MINOT AFB      PTCLDY    12   8  82 W6        29.69S WCI   3
$$

NDZ018>021-031>035-040>046-171600-
SOUTHWEST NORTH DAKOTA

CITY           SKY/WX    TMP DP  RH WIND       PRES   REMARKS
BISMARCK       PTCLDY    33  25  72 NW10      29.71R
DICKINSON      MOCLDY    28  24  85 SW8       29.64S WCI  20
GARRISON         N/A     19  14  81 CALM      29.69R
HETTINGER ARPT CLOUDY    33  27  78 NW3       29.67R
$$

NDZ004>008-012>016-024-026-027-054-171600-
NORTHEAST NORTH DAKOTA

CITY           SKY/WX    TMP DP  RH WIND       PRES   REMARKS
GRAND FORKS    CLOUDY    32  27  81 NW16      29.65R
GRND FRKS AFB  MOSUNNY   30  24  79 NW13      29.65R
DEVILS LAKE    CLOUDY    17  12  80 NW12      29.68R WCI   4
$$

NDZ022-023-025-028>030-036>039-047>053-171600-
SOUTHEAST NORTH DAKOTA

CITY           SKY/WX    TMP DP  RH WIND       PRES   REMARKS
FARGO          CLOUDY    35  29  78 S6        29.63S
JAMESTOWN      CLOUDY    29  24  82 NW15      29.66R WCI  18
$$





USA.gov is the U.S. government's official web portal to all federal, state and local government web resources and services.